CARTOSAT-2D

Last updated on Fri Oct 04 2024 00:02:25 GMT+0000 (Coordinated Universal Time)

1 41948U 17008A 24277.53450005 .00016735 00000+0 79544-3 0 9999 2 41948 97.4131 334.9150 0005916 251.2531 108.8062 15.19262199423197
UTC large
Height (km)
Speed (km/s)
/
Latitude / Longitude
Inclination (degrees)
Orbital Period (minutes)
Azimuth
Elevation
Range (km)
Doppler Factor

Next 0 passes for location: London (51.5072 / 0.1276)

Sorry there are no passes over London.